星链-3680 (STARLINK-3680 )

导读

STARLINK-3680是美国SpaceX公司星链星座中的一员,于2022年3月9日发射升空。星链项目旨在通过低轨卫星星座为全球提供高速低延迟宽带互联网服务,尤其覆盖偏远基础设施匮乏地区。作为组网卫星,它助力星座扩容,提升网络容量与覆盖稳定性,推动全球互联接入的普及,支撑星链持续扩展服务能力,满足不同场景下的互联网接入需求。

Basic Information
目录编号:
51969
目录名称:
STARLINK-3680
国际标识:
2022-025P
轨道中心:
EARTH
卫星名称:
星链-3680
卫星全名:
星链-3680 (STARLINK-3680 )
卫星状态:
在轨 (已飞行1640 天)
发射日期:
2022-03-09 UTC
国别 :
美国 (US)
星等 :
--
Orbit Information
数据来源 国际轨道数据
星历时间: 2026-09-03T20:16:16+0800
16小时前
查看轨道信息
半长轴: 6848.855km
偏心率: 0.0001066
轨道倾角: 53.159°
近地点辐角 75.131°
升交点赤经 276.807°
平近点角 284.981°
近地点: 469.987km
远地点: 471.449km
周期: 94.013分钟
每日圈数: 15.317077
Detailed Information
固有亮度:
5
最大亮度:
2.5
卫星平台:
Starlink v1.5
覆盖范围:
全球
运营商:
太空探索技术公司
运营商所在国:
美国
制造商(研发单位):
太空探索技术公司
制造商所在国:
美国
使用方式:
暂无
Satellite Introduction
星链(Starlink)计划是由太空探索技术公司(SpaceX)提出的一个巨型低轨卫星互联网星座项目,计划在2019年至2024年间在太空搭建由约1.2万颗卫星组成的“星链”网络,其中1584颗将部署在地球上空550千米处的近地轨道,并从2020年开始工作。该卫星仍在工作。
2D Orbit Map
3D Orbit Map
Orbit Altitude Analysis Chart
Orbit Inclination Analysis Chart
Orbit Comprehensive Analysis Chart
View Comprehensive Chart
Conjunction Data List
Event ID Objects TCA Miss Dist (km) Collision Risk Probability Collision Risk Index (CRI) Action
CDM_260904-143805-196905-984821
2026-09-04T
14:38:52+0000
1.057 km
极远距离
1.20833E-5 中风险 0.57
CDM_260905-104805-196905-389621
2026-09-05T
10:48:55+0000
2.986 km
极远距离
6.115487E-7 极低风险 0.31